Weather History for Lafayette, IN

Change the Weather History Date:

Tuesday, April 23, 2013

  Actual Average Record
Temperature  
Mean Temperature 52 °F 54 °F  
Max Temperature 64 °F 66 °F 80 °F (1985)
Min Temperature 40 °F 43 °F 22 °F (1986)
Degree Days  
Heating Degree Days 13 11  
Month to date heating degree days 367 337  
Since 1 July heating degree days 5670 5422  
Cooling Degree Days 0 1  
Month to date cooling degree days 1 5  
Year to date cooling degree days 1 6  
Growing Degree Days 2 (Base 50)    
Moisture  
Dew Point 48 °F    
Average Humidity 76    
Maximum Humidity 100    
Minimum Humidity 52    
Precipitation  
Precipitation 0.83 in 0.13 in 3.10 in (1952)
Month to date precipitation 7.74 2.65  
Year to date precipitation 14.94 8.94  
Sea Level Pressure  
Sea Level Pressure 29.90 in    
Wind  
Wind Speed 7 mph (SSW)    
Max Wind Speed 26 mph    
Max Gust Speed 33 mph    
Visibility 6 miles    
Events Rain    
T = Trace of Precipitation, MM = Missing Value Source: NWS Daily Summary

Daily Weather History Graph

Daily Weather History Graph

Search for Another Location

Airport:

Trip Planner

Search our weather history database for the weather conditions in past years. The results will help you decide how hot, cold, wet, or windy it might be!

Date:

Astronomy

Apr. 23, 2013 Rise Set
Actual Time 6:57 AM EDT 8:35 PM EDT
Civil Twilight 6:28 AM EDT 9:04 PM EDT
Nautical Twilight 5:53 AM EDT 9:39 PM EDT
Astronomical Twilight 5:16 AM EDT 10:16 PM EDT
Moon 6:29 PM EDT (4/23) 5:25 AM EDT (4/23)
Length of Visible Light 14h 35m
Length of Day
13h 38m
Waxing Gibbous, 94% of the Moon is Illuminated
Apr 23
Waxing Gibbous
Apr 25
Full
May 2
Last Quarter
May 9
New
May 18
First Quarter

Hourly Weather History & Observations

Time (EDT) Temp. Windchill Dew Point Humidity Pressure Visibility Wind Dir Wind Speed Gust Speed Precip Events Conditions
12:54 AM 52.0 °F - 37.9 °F 59% 30.09 in 10.0 mi ESE 4.6 mph - N/A   Clear
1:54 AM 50.0 °F - 37.9 °F 63% 30.08 in 10.0 mi ESE 3.5 mph - N/A   Clear
2:54 AM 51.1 °F - 39.0 °F 63% 30.06 in 10.0 mi ESE 3.5 mph - N/A   Clear
3:54 AM 52.0 °F - 39.9 °F 63% 30.03 in 10.0 mi SSE 3.5 mph - N/A   Clear
4:54 AM 54.0 °F - 39.9 °F 59% 30.01 in 10.0 mi Calm Calm - N/A   Scattered Clouds
5:54 AM 54.0 °F - 41.0 °F 62% 30.02 in 10.0 mi South 3.5 mph - N/A   Overcast
6:54 AM 54.0 °F - 41.0 °F 62% 30.00 in 10.0 mi Variable 3.5 mph - N/A   Mostly Cloudy
7:54 AM 55.0 °F - 41.0 °F 59% 30.02 in 10.0 mi SSW 3.5 mph - N/A   Mostly Cloudy
8:54 AM 55.9 °F - 42.1 °F 60% 30.00 in 10.0 mi South 6.9 mph - N/A   Partly Cloudy
9:54 AM 57.9 °F - 43.0 °F 58% 29.99 in 10.0 mi South 6.9 mph - N/A   Partly Cloudy
10:54 AM 62.1 °F - 45.0 °F 53% 30.00 in 10.0 mi SSW 9.2 mph 18.4 mph N/A   Clear
11:54 AM 62.1 °F - 46.9 °F 58% 29.99 in 10.0 mi SSW 9.2 mph 16.1 mph N/A   Partly Cloudy
12:54 PM 64.0 °F - 46.9 °F 54% 29.96 in 10.0 mi SSW 15.0 mph 21.9 mph N/A   Mostly Cloudy
1:54 PM 59.0 °F - 52.0 °F 78% 29.96 in 10.0 mi WSW 11.5 mph 23.0 mph 0.00 in Rain Light Rain
2:54 PM 57.0 °F - 54.0 °F 89% 29.96 in 7.0 mi SW 11.5 mph - 0.03 in Rain Light Rain
3:02 PM 57.2 °F - 53.6 °F 88% 29.96 in 8.0 mi SW 8.1 mph - 0.00 in Rain Light Rain
3:54 PM 57.0 °F - 54.0 °F 89% 29.94 in 10.0 mi SSW 8.1 mph - 0.01 in   Overcast
4:34 PM 57.2 °F - 53.6 °F 88% 29.92 in 6.0 mi SSW 8.1 mph - 0.02 in Rain Light Rain
4:54 PM 57.0 °F - 55.0 °F 93% 29.90 in 6.0 mi SSW 5.8 mph - 0.02 in Rain Light Rain
5:54 PM 55.9 °F - 55.0 °F 97% 29.88 in 3.0 mi South 3.5 mph - 0.02 in Rain Rain
6:03 PM 55.4 °F - 55.4 °F 100% 29.87 in 2.5 mi South 5.8 mph - 0.01 in Rain Light Rain
6:54 PM 55.9 °F - 54.0 °F 93% 29.85 in 4.0 mi South 5.8 mph - 0.04 in Rain Light Rain
7:19 PM 55.4 °F - 53.6 °F 94% 29.83 in 4.0 mi ESE 4.6 mph - 0.01 in Rain Light Rain
7:35 PM 55.4 °F - 55.4 °F 100% 29.81 in 2.0 mi Calm Calm - 0.03 in Rain Light Rain
7:47 PM 55.4 °F - 55.4 °F 100% 29.81 in 3.0 mi SSE 5.8 mph - 0.04 in Rain Light Rain
7:54 PM 55.9 °F - 55.0 °F 97% 29.81 in 4.0 mi South 4.6 mph - 0.04 in Rain Light Rain
8:02 PM 55.4 °F - 55.4 °F 100% 29.81 in 2.5 mi South 5.8 mph - 0.02 in Rain Rain
8:06 PM 55.4 °F - 55.4 °F 100% 29.81 in 1.8 mi South 6.9 mph - 0.04 in Rain Rain
8:10 PM 55.4 °F - 55.4 °F 100% 29.80 in 2.0 mi South 6.9 mph - 0.05 in Rain Rain
8:54 PM 57.0 °F - 55.0 °F 93% 29.81 in 2.0 mi SW 8.1 mph - 0.13 in Rain Light Rain
9:00 PM 57.2 °F - 55.4 °F 94% 29.81 in 3.0 mi WNW 9.2 mph - 0.06 in Rain Rain
9:02 PM 55.4 °F - 55.4 °F 100% 29.81 in 2.0 mi West 5.8 mph - 0.10 in Rain Heavy Rain
9:09 PM 55.4 °F - 55.4 °F 100% 29.82 in 1.8 mi West 5.8 mph - 0.14 in Rain Rain
9:13 PM 55.4 °F - 55.4 °F 100% 29.82 in 3.0 mi SW 4.6 mph - 0.14 in Rain Rain
9:34 PM 55.4 °F - 55.4 °F 100% 29.82 in 4.0 mi WNW 4.6 mph - 0.16 in Rain Rain
9:50 PM 44.6 °F 35.9 °F 44.6 °F 100% 29.86 in 3.0 mi North 23.0 mph 32.2 mph 0.26 in Rain Heavy Rain
9:54 PM 45.0 °F 37.1 °F 43.0 °F 93% 29.84 in 3.0 mi North 19.6 mph 28.8 mph 0.28 in Rain Heavy Rain
9:56 PM 44.6 °F 37.2 °F 42.8 °F 93% 29.84 in 3.0 mi North 17.3 mph 28.8 mph 0.01 in Rain Heavy Rain
10:06 PM 42.8 °F 33.8 °F 42.8 °F 100% 29.84 in 5.0 mi North 21.9 mph 33.4 mph 0.02 in Rain Light Rain
10:54 PM 41.0 °F 32.8 °F 41.0 °F 100% 29.86 in 6.0 mi NNE 16.1 mph 25.3 mph 0.07 in Rain Light Rain
11:23 PM 41.0 °F 34.7 °F 41.0 °F 100% 29.88 in 8.0 mi North 10.4 mph - 0.07 in Rain Light Rain
11:34 PM 41.0 °F 34.3 °F 41.0 °F 100% 29.86 in 4.0 mi NNE 11.5 mph - 0.11 in Rain Rain
11:54 PM 41.0 °F 36.4 °F 41.0 °F 100% 29.87 in 10.0 mi North 6.9 mph 16.1 mph 0.15 in Rain Light Rain